Racine, WI

11:13 PM CDT on August 16, 2017 (GMT -0500)
Batten

Weather History for KRAC - August, 2013

Change the Weather History Date:

Thursday, August 29, 2013

  Actual Average Record
Temperature  
Mean Temperature 73 °F -  
Max Temperature 84 °F 77 °F 95 °F (1953)
Min Temperature 64 °F 61 °F 43 °F (1965)
Cooling Degree Days 8    
Growing Degree Days 23 (Base 50)    
Moisture  
Dew Point 67 °F    
Average Humidity 79    
Maximum Humidity 96    
Minimum Humidity 60    
Precipitation  
Precipitation 0.01 in - - ()
Sea Level Pressure  
Sea Level Pressure 30.05 in    
Wind  
Wind Speed 2 mph (SE)    
Max Wind Speed 9 mph    
Max Gust Speed -    
Visibility 9 miles    
Events      
Averages and records for this station are not official NWS values.
T = Trace of Precipitation, MM = Missing Value Source: NWS Daily Summary

Daily Weather History Graph

Daily Weather History Graph

Search for Another Location

Airport or City:

Trip Planner

Search our weather history database for the weather conditions in past years. The results will help you decide how hot, cold, wet, or windy it might be!

Date:

Astronomy

Aug. 29, 2013 Rise Set
Actual Time 6:13 AM CDT 7:30 PM CDT
Civil Twilight 5:43 AM CDT 7:59 PM CDT
Nautical Twilight 5:08 AM CDT 8:34 PM CDT
Astronomical Twilight 4:31 AM CDT 9:11 PM CDT
Moon 12:00 AM CDT (8/29) 3:03 PM CDT (8/29)
Length of Visible Light 14h 15m
Length of Day
13h 17m
Last Quarter, 38% of the Moon is Illuminated
Aug 29
Last Quarter
Sep 5
New
Sep 12
First Quarter
Sep 19
Full
Sep 26
Last Quarter

Hourly Weather History & Observations

Time (CDT) Temp. Heat Index Dew Point Humidity Pressure Visibility Wind Dir Wind Speed Gust Speed Precip Events Conditions
12:53 AM 68.0 °F - 64.9 °F 90% 30.06 in 9.0 mi Calm Calm - N/A   Clear
1:53 AM 64.9 °F - 63.0 °F 93% 30.06 in 6.0 mi Calm Calm - N/A   Clear
2:53 AM 66.9 °F - 64.9 °F 93% 30.05 in 7.0 mi Calm Calm - N/A   Clear
3:53 AM 66.9 °F - 64.9 °F 93% 30.06 in 6.0 mi West 3.5 mph - N/A   Clear
4:53 AM 66.0 °F - 64.9 °F 96% 30.06 in 6.0 mi Calm Calm - N/A   Clear
5:53 AM 66.0 °F - 64.0 °F 93% 30.06 in 4.0 mi Calm Calm - N/A   Clear
6:53 AM 64.9 °F - 63.0 °F 93% 30.09 in 5.0 mi Calm Calm - 0.01 in   Clear
7:53 AM 71.1 °F - 68.0 °F 90% 30.09 in 7.0 mi Calm Calm - N/A   Clear
8:53 AM 73.9 °F - 69.1 °F 85% 30.10 in 10.0 mi North 4.6 mph - N/A   Clear
9:53 AM 79.0 °F - 69.1 °F 72% 30.10 in 10.0 mi NE 3.5 mph - N/A   Clear
10:53 AM 82.0 °F 85.5 °F 69.1 °F 65% 30.10 in 10.0 mi Calm Calm - N/A   Clear
11:53 AM 81.0 °F 84.1 °F 69.1 °F 67% 30.10 in 10.0 mi East 4.6 mph - N/A   Clear
12:53 PM 81.0 °F 84.1 °F 69.1 °F 67% 30.09 in 10.0 mi East 6.9 mph - N/A   Clear
1:53 PM 82.9 °F 86.5 °F 69.1 °F 63% 30.07 in 10.0 mi SE 5.8 mph - N/A   Clear
2:53 PM 82.9 °F 85.8 °F 68.0 °F 60% 30.05 in 10.0 mi SE 9.2 mph - N/A   Clear
3:53 PM 82.9 °F 85.8 °F 68.0 °F 60% 30.04 in 10.0 mi SSE 8.1 mph - N/A   Clear
4:53 PM 82.0 °F 84.9 °F 68.0 °F 62% 30.04 in 10.0 mi ESE 6.9 mph - N/A   Clear
5:53 PM 81.0 °F 83.8 °F 68.0 °F 65% 30.02 in 10.0 mi SE 6.9 mph - N/A   Clear
6:53 PM 78.1 °F - 66.9 °F 68% 30.02 in 10.0 mi SSE 9.2 mph - N/A   Clear
7:53 PM 75.9 °F - 66.9 °F 74% 30.01 in 10.0 mi SE 5.8 mph - N/A   Clear
8:53 PM 73.0 °F - 66.9 °F 81% 30.01 in 10.0 mi Calm Calm - N/A   Clear
9:53 PM 70.0 °F - 66.9 °F 90% 30.00 in 10.0 mi South 3.5 mph - N/A   Clear
10:53 PM 71.1 °F - 68.0 °F 90% 30.00 in 9.0 mi Calm Calm - N/A   Clear
11:53 PM 71.1 °F - 68.0 °F 90% 30.01 in 8.0 mi WSW 3.5 mph - N/A   Clear